date,time,DOY,Ta_1_1_1,Pa_1_1_1,RH_1_1_1,LWin_1_1_1,LWout_1_1_1,SWin_1_1_1,SWout_1_1_1,PPFD_1_1_1,MWS_1_1_1,WD_1_1_1,SWC_1_1_1,Ts_1_1_1
[yyyy-mm-dd],[HH:MM],[ddd.ddd],[K],[Pa],[%],[W+1m-2],[W+1m-2],[W+1m-2],[W+1m-2],[µmol+1m-2s-1],[m+1s-1],[deg],[m+3m-3],[K]
2018-07-16,00:30,197.020,299.32699999999994,94628.766666666663,58.437333333333328,454.01666666666677,417.99933333333325,21.956666666666663,116.18833333333333,237.36866666666674,2.7966666666666669,218.62266666666667,0.25999999999999984,292.43200000000007
2018-07-16,01:00,197.041,298.75666666666672,94622.566666666666,61.581666666666656,449.38100000000003,416.65899999999993,7.5590000000000002,40.555999999999990,84.562666666666644,2.4133333333333340,216.97800000000001,0.25999999999999984,292.41499999999996
2018-07-16,01:30,197.062,298.19733333333329,94620.866666666669,64.170000000000002,446.04633333333339,414.79433333333321,2.4203333333333337,10.094000000000003,24.655666666666669,2.3066666666666666,237.55533333333332,0.25999999999999984,292.39200000000000
2018-07-16,02:00,197.083,297.78000000000009,94609.333333333328,66.042999999999992,442.79666666666668,411.65766666666673,1.9206666666666667,2.4666666666666659,5.8386666666666676,2.1266666666666665,197.62199999999999,0.25999999999999984,292.35700000000003
2018-07-16,02:30,197.104,297.20466666666664,94639.433333333334,68.133999999999986,439.11066666666670,403.24299999999982,0.30133333333333334,-2.6480000000000006,0.31966666666666671,2.3733333333333335,227.53400000000002,0.25999999999999984,292.31000000000006
2018-07-16,03:00,197.124,295.73800000000000,94683.300000000003,75.264333333333326,432.35166666666663,394.43733333333336,0.10166666666666664,-2.8976666666666664,-1.00000000000000002E-003,3.9699999999999998,224.97800000000001,0.25999999999999984,292.25933333333330
2018-07-16,03:30,197.145,294.71900000000011,94694.500000000000,80.217666666666673,427.27699999999999,393.98466666666661,0.49366666666666675,-2.2946666666666666,-4.00000000000000008E-003,3.0666666666666669,215.73366666666666,0.25999999999999984,292.19866666666661
2018-07-16,04:00,197.166,294.36466666666666,94693.100000000006,80.765333333333331,425.16166666666669,393.93966666666654,0.71133333333333326,-1.9913333333333330,-1.40000000000000020E-002,2.7600000000000002,202.77766666666668,0.25999999999999984,292.13066666666668
2018-07-16,04:30,197.187,294.06666666666666,94697.566666666666,79.593666666666664,423.28266666666661,390.89300000000009,0.70266666666666688,-1.9166666666666670,-5.66666666666666621E-003,3.3233333333333333,233.23333333333338,0.25999999999999984,292.05933333333343
2018-07-16,05:00,197.208,293.79666666666685,94705.000000000000,78.941999999999993,422.36733333333348,401.57599999999991,0.53633333333333344,-1.2876666666666665,-1.10000000000000028E-002,2.7233333333333336,235.32133333333331,0.25999999999999984,291.98366666666664
2018-07-16,05:30,197.229,293.77100000000007,94723.199999999997,76.177000000000007,422.91900000000004,411.12999999999994,0.27066666666666667,-0.65666666666666651,-7.66666666666666798E-003,3.9733333333333340,215.72233333333332,0.25999999999999984,291.90200000000004
2018-07-16,06:00,197.249,293.37433333333331,94741.000000000000,75.195333333333352,420.21333333333331,396.69433333333330,0.15066666666666664,-1.5056666666666667,1.33333333333333307E-003,4.4433333333333325,229.46766666666670,0.25999999999999984,291.82800000000015
2018-07-16,06:30,197.270,292.80566666666658,94743.333333333328,75.100666666666683,415.09666666666658,364.53533333333331,0.59666666666666646,-3.1953333333333336,-1.49999999999999977E-002,4.1199999999999992,259.34366666666665,0.25999999999999984,291.74366666666663
2018-07-16,07:00,197.291,292.07533333333333,94749.000000000000,76.594333333333324,410.36233333333337,352.40399999999994,0.89266666666666661,-3.5933333333333337,-1.56666666666666690E-002,4.1766666666666667,255.07800000000000,0.25999999999999984,291.65033333333332
2018-07-16,07:30,197.312,291.34433333333340,94745.633333333331,76.957666666666668,405.97300000000001,340.41866666666670,1.0583333333333331,-4.0273333333333330,-3.60000000000000181E-002,4.2999999999999998,260.84399999999999,0.25999999999999984,291.55200000000002
2018-07-16,08:00,197.333,290.62033333333341,94748.933333333334,77.277333333333317,401.66600000000005,332.28999999999996,1.1703333333333332,-4.1906666666666661,-3.46666666666666720E-002,4.6633333333333322,263.36599999999999,0.25999999999999984,291.43866666666662
2018-07-16,08:30,197.354,289.99533333333329,94747.666666666672,79.139333333333326,397.82233333333335,327.95700000000005,1.4176666666666666,-4.3449999999999998,-1.83333333333333334E-002,3.6566666666666658,262.99899999999997,0.25999999999999984,291.31733333333341
2018-07-16,09:00,197.374,289.71000000000009,94740.433333333334,79.624666666666670,396.23533333333330,326.08400000000006,1.5586666666666666,-4.1266666666666660,-1.10000000000000011E-002,3.7466666666666653,253.97866666666670,0.25999999999999984,291.18966666666671
2018-07-16,09:30,197.395,289.38999999999999,94726.000000000000,78.414000000000016,394.48333333333341,324.18933333333331,1.4866666666666666,-4.1189999999999998,-4.00000000000000182E-003,3.7066666666666666,255.35600000000002,0.25999999999999984,291.05766666666676
2018-07-16,10:00,197.416,289.02433333333340,94717.000000000000,78.901333333333312,392.33033333333327,322.08533333333332,1.4946666666666666,-4.1400000000000015,0.17899999999999999,3.6233333333333335,253.08866666666665,0.25999999999999984,290.92800000000000
2018-07-16,10:30,197.437,288.74100000000010,94722.600000000006,79.741000000000014,391.09533333333331,321.07166666666672,2.2606666666666668,5.06666666666659438E-002,6.9853333333333323,3.8766666666666669,252.78833333333336,0.25999999999999984,290.79266666666678
2018-07-16,11:00,197.458,288.71466666666674,94730.333333333328,77.751000000000005,391.57499999999993,319.73599999999993,9.6086666666666680,34.733666666666657,53.920999999999999,4.1366666666666658,254.08766666666665,0.25999999999999984,290.66433333333333
2018-07-16,11:30,197.479,288.95200000000011,94728.433333333334,75.198666666666668,393.74200000000002,321.54466666666673,20.941000000000006,101.87100000000001,159.19766666666672,3.8766666666666660,250.76666666666668,0.25999999999999984,290.54100000000005
2018-07-16,12:00,197.499,289.40866666666676,94735.899999999994,71.551000000000002,397.49166666666662,325.80866666666674,33.251000000000005,183.09866666666670,298.73566666666665,4.0766666666666671,252.46700000000001,0.25999999999999984,290.43133333333327
2018-07-16,12:30,197.520,290.09866666666670,94743.133333333331,67.662666666666667,402.62866666666662,331.62399999999997,46.207666666666668,273.22399999999993,468.96533333333338,3.7900000000000000,255.86566666666664,0.25999999999999984,290.33333333333337
2018-07-16,13:00,197.541,290.97600000000006,94755.199999999997,63.971000000000018,408.91800000000006,337.29866666666663,61.041666666666671,366.19733333333335,654.10599999999999,3.5633333333333330,248.75566666666666,0.25999999999999984,290.25766666666669
2018-07-16,13:30,197.562,291.56233333333347,94752.800000000003,61.587333333333312,413.86300000000006,342.65833333333325,75.691333333333333,458.74299999999999,843.69866666666678,3.9699999999999998,238.34333333333331,0.25999999999999984,290.20933333333335
2018-07-16,14:00,197.583,292.32800000000009,94750.333333333328,57.625999999999998,419.63200000000001,347.54733333333331,89.950333333333305,547.77500000000009,1029.5436666666667,4.1466666666666674,247.04433333333333,0.25999999999999984,290.17533333333341
2018-07-16,14:30,197.604,292.93900000000008,94757.766666666663,50.537999999999997,424.25033333333334,350.40633333333329,103.87266666666667,634.28266666666661,1206.0443333333335,4.7999999999999998,250.08966666666666,0.25999999999999984,290.15866666666659
2018-07-16,15:00,197.624,293.45566666666673,94770.266666666663,48.381333333333338,427.98000000000008,354.38766666666663,115.04966666666668,710.79966666666689,1367.9556666666672,5.3833333333333346,252.03366666666668,0.25999999999999984,290.15266666666668
2018-07-16,15:30,197.645,293.92699999999991,94772.266666666663,46.778000000000006,431.71333333333342,358.82300000000009,124.78933333333332,777.89500000000021,1516.2446666666667,5.4333333333333327,242.02233333333334,0.25999999999999984,290.15466666666657
2018-07-16,16:00,197.666,294.61966666666672,94761.699999999997,43.686666666666675,436.76033333333339,363.02566666666661,132.16600000000000,837.70333333333326,1652.5380000000000,5.2766666666666673,248.17800000000000,0.25233333333333335,290.16833333333335
2018-07-16,16:30,197.687,294.99566666666681,94749.266666666663,41.782999999999994,438.53633333333335,365.45733333333334,138.25866666666667,881.01566666666656,1747.8983333333333,6.6166666666666663,246.19000000000003,0.25000000000000000,290.19533333333334
2018-07-16,17:00,197.708,295.72633333333340,94739.600000000006,38.724666666666657,443.65133333333335,368.75066666666663,145.14966666666666,922.17733333333342,1834.8980000000001,6.2933333333333321,245.11133333333333,0.25000000000000000,290.24566666666675
2018-07-16,17:30,197.729,296.08300000000014,94728.033333333340,37.318333333333335,445.43133333333327,370.56766666666664,146.93966666666668,949.96766666666679,1895.7093333333335,6.9833333333333334,244.57799999999997,0.25000000000000000,290.30666666666662
2018-07-16,18:00,197.749,296.59900000000005,94705.633333333331,34.936999999999998,448.51266666666675,372.38766666666663,149.87666666666664,965.63333333333355,1948.7310000000004,7.5700000000000012,245.31066666666666,0.25000000000000000,290.35466666666667
2018-07-16,18:30,197.770,297.14666666666665,94683.233333333337,33.006999999999998,451.86433333333321,373.62999999999988,149.45133333333331,967.37066666666681,1956.8553333333332,7.3499999999999996,240.37866666666667,0.25000000000000000,290.40199999999999
2018-07-16,19:00,197.791,297.10300000000012,94681.866666666669,31.499666666666666,450.76033333333328,372.34233333333322,148.57100000000003,958.51533333333350,1937.5443333333326,8.4533333333333349,253.25566666666666,0.25000000000000000,290.45166666666665
2018-07-16,19:30,197.812,297.14900000000011,94671.399999999994,32.108000000000004,450.06400000000008,373.58033333333327,143.12633333333329,921.13966666666681,1880.4846666666672,8.9366666666666692,250.57833333333335,0.25000000000000000,290.50166666666678
2018-07-16,20:00,197.833,297.18766666666670,94662.033333333340,30.672333333333331,450.14733333333339,373.93366666666662,142.58199999999999,905.74500000000000,1836.5556666666666,8.6933333333333316,243.02233333333334,0.25000000000000000,290.59133333333335
2018-07-16,20:30,197.854,297.32933333333335,94658.699999999997,32.383999999999993,451.87033333333335,384.40233333333339,144.19133333333329,891.46300000000008,1819.1166666666663,6.9699999999999998,238.85499999999999,0.25000000000000000,290.70933333333335
2018-07-16,21:00,197.874,296.90200000000004,94678.833333333328,32.722000000000008,447.22300000000001,382.11366666666669,127.29700000000000,778.04266666666661,1560.9983333333337,8.6666666666666661,247.04399999999998,0.25000000000000000,290.80566666666675
2018-07-16,21:30,197.895,296.15600000000001,94687.399999999994,37.249999999999993,441.85300000000001,375.57866666666661,106.89566666666666,638.08533333333321,1306.1413333333333,7.7833333333333350,271.52166666666665,0.24700000000000005,290.83633333333341
2018-07-16,22:00,197.916,295.81800000000010,94694.933333333334,38.969999999999999,440.02233333333334,370.70333333333332,107.32200000000003,630.70999999999981,1306.3916666666669,7.2799999999999985,266.61133333333333,0.24000000000000016,290.83966666666674
2018-07-16,22:30,197.937,295.59066666666666,94704.066666666666,40.585666666666661,437.72666666666663,368.37799999999999,94.699999999999989,544.44000000000005,1128.7813333333336,6.8099999999999987,275.15600000000001,0.24000000000000016,290.82566666666673
2018-07-16,23:00,197.958,294.95333333333332,94717.433333333334,43.005666666666670,433.00566666666680,363.12233333333330,81.788666666666686,451.75733333333329,936.77733333333333,6.7466666666666679,291.81066666666663,0.24000000000000016,290.79300000000006
2018-07-16,23:30,197.979,294.23800000000011,94746.633333333331,44.662333333333329,427.92700000000002,357.11033333333330,69.216666666666669,362.08066666666667,750.15066666666667,6.5266666666666673,290.07666666666665,0.24000000000000016,290.74100000000004
2018-07-17,00:00,198.000,293.75900000000001,94775.333333333328,44.619333333333330,423.95366666666672,352.15933333333334,57.735666666666681,274.10266666666661,564.73299999999995,6.2566666666666668,286.44400000000002,0.24000000000000016,290.67633333333328
